map of OZZ home
Great Circle Mapper logo
OZZ - Airport
Location
City:  Ouarzazate, Morocco
ICAO:GMMZ
IATA:OZZ

Details
Type:Airport (Aerodrome, Airfield)
Use:Public/Civil, International (customs port of entry)
Latitude:3056'21"N (30.939053)
Longitude:654'34"W (-6.909430)
Datum:WGS 1984
Elevation:3782 ft (1153 m)
Variation:1.85W (WMM2015 magnetic declination)
0.11 annual change
Runways:1
Longest:9842 × 148 ft (3000 × 45 m), paved

Time
Time Zone:UTC+0 (DST+1)
Local Time:

Weather
METAR:GMMZ 240700Z VRB01KT CAVOK 24/01 Q1021 NOSIG
TAF:GMMZ 240500Z 2406/25012 VEB03KT CAVOK
TEMPO 2413/2420 18014KT

Related Locations
Nearby:
Farthest:KAT: 12145 mi / 19545 km
Kaitaia, NZ

Find:

   beyond  
but within

Other Information
Maps:
NOTAMs:
Links:
Sources:

  
flag of Morocco   

Sectional Chart

Flight Planning
at skyvector.com

Satellite Image

Google Maps Satellite view

 

Copyright © 2004-2016 Karl L. Swartz. All rights reserved.
The Great Circle Mapper name and logo are trademarks of the Great Circle Mapper.
All other trademarks mentioned herein belong to their respective owners.
Please see credits for attibutions and further copyright information.

  Follow gcmap on Facebook Follow gcmap on Twitter Follow gcmap on Google+ GCmap on LinkedIn

hCard Microformat

Geo Microformat